Temp
79 80 77 73 60 59 57 63 65 68 73 81 81 77 70 68 66 57 70 72 75 76 77 80 82 83 83 82 82 83 83 83 83 83 83 83 83 83 83 83 83 84 84 84 83 83 83 83 83
78 79 74 68 59 52 56 64 64 69 75 79 80 78 72 63 70 67 67 75 77 77 77 79 81 82 83 83 83 83 83 83 83 83 83 83 83 83 84 83 84 84 84 84 83 83 83 83 83
79 82 66 63 60 55 57 66 71 77 82 80 76 77 71 65 70 70 75 77 79 76 77 79 82 82 83 83 83 83 83 83 83 83 83 83 83 83 83 83 83 84 83 83 83 83 83 83 83
78 73 69 60 59 64 65 69 73 77 80 81 76 67 72 76 73 75 78 80 77 77 79 82 82 83 83 83 83 83 83 83 83 83 83 83 83 84 84 84 83 83 83 84 83 83 83 83 83
77 70 61 58 61 64 69 72 71 73 76 75 75 64 65 73 76 79 79 80 75 76 79 81 82 83 83 83 83 83 83 83 83 83 83 84 84 84 84 84 84 84 84 84 84 84 83 83 83
68 65 58 55 61 69 73 76 73 75 75 72 69 68 65 74 75 77 79 77 78 77 78 81 82 83 83 83 83 83 83 83 83 83 83 83 84 84 84 84 84 84 84 84 84 83 83 83 83
65 64 59 60 62 64 74 76 73 74 73 71 76 63 65 72 77 79 79 78 78 78 78 78 80 82 83 83 83 84 83 83 83 83 83 83 84 84 84 84 84 85 85 84 84 84 83 82 82
70 65 62 61 61 64 78 77 80 77 74 81 77 63 61 73 79 80 79 78 77 77 77 75 75 76 76 79 84 83 83 83 83 83 83 83 84 84 84 83 84 85 85 85 84 84 83 83 82
80 64 58 64 67 69 77 77 80 82 76 79 79 73 75 78 79 78 75 74 75 77 75 75 74 74 75 77 81 82 83 83 83 83 83 82 76 77 81 82 84 85 85 85 84 84 84 83 83
70 60 63 75 74 73 78 77 77 75 73 72 73 77 79 79 76 75 73 72 73 73 74 74 74 73 74 82 76 75 78 77 77 77 76 75 75 75 81 81 84 85 85 84 84 83 83 83 75
73 63 72 77 82 78 78 80 82 72 67 70 68 72 76 77 76 75 75 73 73 75 76 75 76 74 74 77 74 73 74 75 75 75 73 74 76 75 77 77 77 76 80 73 75 74 74 76 74
67 75 77 79 84 81 79 82 77 78 73 77 76 76 77 75 75 76 75 75 75 75 77 77 77 76 74 74 74 75 75 75 75 73 73 73 73 74 74 73 75 74 74 73 73 72 74 75 76
71 75 81 83 83 82 84 80 77 75 78 79 78 77 76 76 77 79 79 78 77 76 77 77 78 77 77 75 74 74 75 76 77 76 74 74 73 72 73 73 72 72 72 72 72 72 74 74 77
77 78 81 83 81 79 79 78 76 75 78 76 76 75 77 77 77 79 79 78 78 79 78 79 78 78 78 77 73 74 75 76 78 78 76 75 73 72 72 72 73 72 73 72 72 72 74 73 75
78 73 79 81 82 78 81 71 69 75 77 74 75 76 77 77 79 78 81 80 80 80 81 80 79 79 78 78 77 78 79 80 82 79 77 76 74 74 73 72 73 73 73 73 73 73 74 73 76
70 71 65 77 78 80 75 60 71 76 74 72 74 76 76 77 79 80 81 81 82 81 80 81 84 80 79 78 77 77 77 76 78 78 78 78 77 75 74 73 73 74 74 73 72 72 72 73 74
61 57 63 71 81 77 72 63 71 76 73 72 73 75 76 76 79 80 83 81 81 80 81 81 82 79 78 76 77 77 77 76 76 76 77 77 78 76 73 72 73 74 73 73 74 72 74 73 75
55 56 62 67 78 76 70 67 71 74 74 72 73 73 75 75 77 81 83 84 84 80 82 82 82 79 76 75 75 75 75 75 75 76 76 77 77 76 73 73 74 73 73 73 73 73 75 73 72
67 64 64 71 78 72 67 67 70 73 70 73 73 73 74 76 80 82 83 84 85 79 80 81 80 78 77 73 71 71 72 73 74 75 78 77 77 78 75 73 73 74 73 74 74 73 73 72 70
68 65 66 72 79 78 70 68 71 71 70 73 75 74 75 76 78 80 82 83 84 79 81 79 79 78 78 79 78 73 72 73 75 75 76 77 78 77 76 74 73 73 73 73 74 73 71 70 69
67 64 66 66 74 76 70 62 64 69 73 74 79 77 78 78 78 79 80 82 84 81 79 79 78 77 78 78 75 72 73 72 72 73 73 76 78 78 77 76 74 75 73 73 72 73 72 69 69
61 73 73 72 67 59 71 48 60 66 68 70 71 76 77 78 82 82 82 82 84 83 82 81 78 78 79 77 77 77 77 75 72 73 74 75 78 78 78 77 76 75 73 73 73 75 72 71 68
66 74 71 71 63 58 68 56 58 67 63 68 73 75 77 78 83 83 84 84 85 86 83 81 78 78 79 77 79 77 76 74 71 72 74 73 75 77 79 77 76 75 74 74 73 74 72 71 70
77 70 68 62 59 51 61 64 57 60 66 72 76 77 78 79 84 86 86 86 84 85 84 82 78 77 78 78 78 77 76 71 72 71 72 72 73 76 77 79 77 76 74 74 73 73 73 72 71
72 57 50 45 48 49 61 57 65 70 74 76 75 78 80 81 81 85 84 84 83 81 82 81 79 77 77 78 77 77 76 74 73 72 73 70 72 73 75 76 76 76 75 75 74 74 73 72 71
64 65 51 42 42 53 57 54 65 75 80 81 80 81 81 83 82 84 85 86 84 82 81 81 79 79 78 78 77 78 77 77 77 75 72 74 75 77 78 78 78 77 77 75 74 73 74 73 72
62 59 68 50 45 47 53 62 71 75 75 80 80 81 81 83 83 84 87 86 86 82 81 80 79 79 79 79 79 77 76 78 78 73 74 75 73 77 77 79 78 78 77 76 74 73 73 74 73
71 68 55 49 48 43 50 54 64 68 72 74 79 81 82 83 84 86 88 86 87 85 83 81 80 80 80 80 80 80 79 77 76 77 73 73 74 76 77 77 79 79 77 77 74 74 74 74 73
66 64 57 59 51 50 43 57 68 69 72 74 77 83 83 83 84 87 88 88 87 87 84 82 80 80 79 80 80 79 79 79 78 75 77 77 75 74 75 77 78 78 78 76 75 74 75 74 74
69 63 63 57 49 48 50 60 73 75 76 77 79 85 86 86 87 89 89 88 87 86 85 82 81 80 80 80 80 79 79 78 77 77 76 77 75 75 78 75 76 77 78 76 77 75 77 75 73
MSLP
1011.37 1011.55 1011.85 1011.86 1012.50 1011.99 1011.30 1010.43 1009.65 1008.63 1007.79 1007.36 1008.09 1008.51 1009.94 1010.97 1012.05 1013.67 1013.81 1014.30 1014.59 1015.06 1015.22 1015.35 1015.43 1015.74 1015.93 1015.95 1016.05 1016.18 1016.37 1016.52 1016.65 1016.77 1016.81 1016.87 1016.91 1017.01 1017.10 1017.22 1017.38 1017.54 1017.71 1017.74 1017.78 1017.80 1017.86 1018.01 1018.13
1011.26 1011.73 1011.85 1011.66 1011.86 1011.51 1011.10 1010.21 1008.79 1008.43 1007.94 1007.32 1008.01 1008.60 1009.78 1011.73 1012.45 1013.38 1014.05 1014.36 1014.52 1014.87 1015.24 1015.43 1015.51 1015.83 1016.06 1016.16 1016.25 1016.43 1016.59 1016.76 1016.92 1017.00 1017.13 1017.25 1017.33 1017.38 1017.42 1017.53 1017.68 1017.81 1017.94 1017.97 1018.01 1018.02 1018.09 1018.29 1018.31
1011.13 1011.13 1011.60 1011.45 1011.23 1010.99 1010.60 1009.56 1008.52 1007.89 1007.58 1007.16 1008.17 1009.14 1010.63 1012.08 1012.87 1013.48 1013.71 1014.18 1014.56 1015.02 1015.24 1015.47 1015.66 1015.93 1016.15 1016.31 1016.46 1016.67 1016.81 1017.03 1017.25 1017.29 1017.44 1017.57 1017.69 1017.77 1017.77 1017.82 1017.99 1018.10 1018.23 1018.29 1018.23 1018.15 1018.23 1018.38 1018.37
1010.95 1011.45 1011.39 1011.34 1011.04 1010.70 1010.13 1009.61 1008.98 1008.06 1007.60 1007.64 1008.56 1010.27 1011.61 1012.19 1012.90 1013.23 1013.76 1014.06 1014.73 1015.09 1015.40 1015.58 1015.80 1015.97 1016.23 1016.47 1016.67 1016.84 1016.97 1017.23 1017.44 1017.49 1017.59 1017.71 1017.82 1017.90 1017.98 1018.07 1018.13 1018.24 1018.41 1018.49 1018.41 1018.39 1018.41 1018.43 1018.60
1010.85 1011.25 1011.44 1011.16 1011.19 1010.25 1009.51 1009.60 1009.40 1008.54 1007.79 1008.42 1008.75 1011.37 1012.33 1013.16 1013.04 1013.63 1014.07 1014.55 1014.95 1015.30 1015.50 1015.70 1015.87 1016.06 1016.30 1016.60 1016.80 1016.95 1017.12 1017.38 1017.57 1017.69 1017.73 1017.81 1017.93 1018.05 1018.10 1018.17 1018.25 1018.40 1018.56 1018.61 1018.60 1018.51 1018.53 1018.60 1018.61
1011.13 1011.73 1011.57 1011.05 1010.68 1009.78 1008.67 1008.61 1008.62 1008.56 1008.25 1009.04 1009.82 1011.01 1013.01 1013.26 1013.62 1014.02 1014.37 1014.81 1015.03 1015.41 1015.64 1015.79 1016.06 1016.17 1016.41 1016.71 1016.98 1017.20 1017.42 1017.63 1017.80 1017.82 1017.90 1018.06 1018.06 1018.13 1018.21 1018.34 1018.44 1018.53 1018.52 1018.58 1018.63 1018.69 1018.69 1018.61 1018.71
1010.68 1010.78 1011.09 1010.79 1010.13 1009.26 1007.47 1007.57 1007.82 1008.11 1008.30 1008.91 1009.27 1011.33 1013.19 1013.48 1013.88 1014.24 1014.59 1015.00 1015.15 1015.55 1015.71 1016.06 1016.19 1016.35 1016.61 1016.97 1017.15 1017.36 1017.62 1017.79 1017.89 1018.07 1018.15 1018.30 1018.27 1018.39 1018.31 1018.41 1018.52 1018.56 1018.57 1018.66 1018.65 1018.69 1018.75 1018.88 1018.81
1009.97 1010.20 1010.28 1010.30 1009.80 1008.73 1007.52 1007.03 1007.06 1007.51 1008.06 1008.71 1009.43 1010.98 1012.60 1012.97 1013.74 1014.22 1014.84 1015.23 1015.53 1015.84 1015.96 1016.37 1016.41 1016.55 1016.93 1017.15 1017.29 1017.54 1017.75 1017.87 1018.09 1018.20 1018.24 1018.34 1018.54 1018.45 1018.35 1018.46 1018.52 1018.47 1018.43 1018.56 1018.70 1018.69 1018.78 1018.99 1019.07
1009.72 1009.91 1009.52 1008.79 1008.43 1007.73 1006.91 1006.51 1007.52 1007.45 1007.92 1008.69 1009.21 1010.12 1011.44 1012.47 1013.48 1014.17 1014.81 1015.38 1015.87 1016.23 1016.35 1016.49 1016.63 1016.86 1017.24 1017.39 1017.49 1017.63 1017.85 1017.93 1018.13 1018.24 1018.35 1018.51 1018.73 1018.55 1018.53 1018.62 1018.55 1018.55 1018.54 1018.59 1018.67 1018.77 1018.89 1019.13 1019.21
1009.53 1009.04 1007.87 1007.03 1006.80 1006.71 1006.68 1006.42 1007.18 1007.83 1008.53 1009.31 1009.88 1010.94 1011.85 1012.50 1013.31 1013.90 1014.61 1015.22 1015.75 1016.24 1016.55 1016.67 1016.73 1017.08 1017.33 1017.41 1017.67 1017.78 1017.98 1018.14 1018.27 1018.36 1018.44 1018.68 1018.74 1018.65 1018.59 1018.60 1018.61 1018.65 1018.63 1018.73 1018.59 1018.94 1018.92 1019.05 1019.47
1008.32 1007.59 1006.62 1006.16 1005.76 1006.01 1006.09 1006.17 1006.50 1007.76 1008.90 1008.49 1009.47 1010.61 1011.87 1012.56 1013.27 1013.86 1014.57 1015.07 1015.43 1015.78 1016.29 1016.61 1016.62 1017.06 1017.27 1017.44 1017.75 1017.85 1018.13 1018.13 1018.13 1018.26 1018.50 1018.65 1018.58 1018.45 1018.54 1018.75 1018.82 1018.97 1018.78 1018.89 1018.95 1019.04 1019.05 1019.01 1019.62
1007.53 1006.36 1005.83 1005.14 1005.04 1005.54 1005.43 1006.00 1006.45 1006.58 1007.20 1008.55 1008.77 1009.48 1011.02 1012.24 1012.84 1013.45 1014.18 1014.74 1015.19 1015.62 1015.95 1016.35 1016.47 1016.90 1017.14 1017.45 1017.65 1017.70 1017.94 1017.99 1018.12 1018.30 1018.67 1018.73 1018.65 1018.48 1018.61 1018.77 1018.97 1019.13 1019.17 1018.97 1018.95 1019.04 1018.98 1019.15 1019.27
1006.83 1005.63 1005.27 1004.65 1004.71 1004.81 1004.96 1005.49 1006.22 1006.83 1007.49 1008.73 1009.77 1010.13 1010.86 1011.89 1012.72 1013.33 1013.89 1014.58 1015.04 1015.41 1015.69 1016.03 1016.27 1016.71 1016.88 1017.31 1017.55 1017.61 1017.64 1017.83 1017.85 1018.22 1018.59 1018.47 1018.48 1018.61 1018.61 1018.78 1019.05 1019.19 1019.23 1019.14 1019.11 1019.05 1019.15 1019.07 1019.37
1005.19 1005.43 1004.95 1004.58 1003.98 1004.83 1005.17 1005.59 1006.29 1008.37 1008.15 1009.05 1009.69 1010.56 1010.90 1011.34 1011.97 1012.79 1013.36 1013.94 1014.57 1014.94 1015.35 1015.65 1016.06 1016.30 1016.60 1016.93 1017.38 1017.46 1017.46 1017.49 1017.60 1017.92 1018.28 1018.23 1018.23 1018.54 1018.57 1018.94 1019.04 1019.23 1019.25 1019.07 1019.14 1019.20 1018.99 1019.35 1019.39
1005.23 1005.32 1004.75 1004.27 1003.85 1005.13 1005.04 1006.53 1007.55 1008.45 1009.25 1009.11 1009.93 1010.42 1011.07 1011.55 1011.89 1012.16 1012.49 1013.14 1013.78 1014.39 1014.77 1015.34 1015.68 1015.98 1016.41 1016.75 1017.03 1017.05 1017.05 1017.20 1017.23 1017.55 1017.89 1018.18 1018.15 1018.32 1018.75 1018.91 1019.04 1019.05 1018.98 1018.95 1019.30 1019.41 1019.33 1019.27 1019.47
1005.27 1004.96 1004.49 1003.57 1004.37 1005.15 1005.46 1007.52 1008.45 1008.49 1008.63 1009.50 1009.79 1010.12 1010.73 1011.10 1011.43 1011.73 1012.25 1012.63 1013.21 1013.86 1014.37 1014.93 1015.32 1015.82 1016.11 1016.35 1016.58 1016.71 1016.65 1016.75 1016.93 1017.22 1017.54 1017.82 1018.01 1018.25 1018.79 1019.10 1018.93 1019.04 1019.11 1019.14 1019.47 1019.62 1019.52 1019.23 1019.26
1005.23 1004.87 1004.11 1003.16 1003.30 1004.44 1005.79 1007.52 1008.54 1008.65 1009.03 1009.52 1009.62 1009.43 1009.97 1010.57 1010.99 1011.33 1011.63 1012.18 1012.65 1013.20 1013.78 1014.47 1014.95 1015.47 1015.81 1015.81 1015.93 1016.21 1016.37 1016.83 1016.88 1016.90 1017.19 1017.49 1017.81 1018.18 1018.51 1018.79 1018.83 1018.99 1018.97 1018.93 1019.19 1019.42 1019.56 1019.45 1019.35
1005.23 1004.70 1003.75 1002.94 1002.14 1003.75 1005.64 1007.02 1007.71 1008.36 1008.52 1009.05 1009.36 1009.27 1009.49 1009.84 1010.01 1010.29 1010.98 1011.61 1012.03 1012.66 1013.13 1013.81 1014.49 1015.11 1015.39 1015.57 1015.81 1016.09 1016.47 1016.47 1016.87 1017.01 1017.14 1017.39 1017.69 1018.06 1018.37 1018.59 1018.62 1018.98 1019.13 1019.35 1019.49 1019.51 1019.57 1019.51 1019.56
1004.60 1004.09 1003.44 1002.31 1002.52 1003.52 1004.45 1006.23 1006.24 1006.60 1008.01 1008.24 1008.37 1008.85 1008.86 1008.63 1009.12 1009.93 1010.31 1011.05 1011.55 1012.27 1012.78 1013.30 1013.95 1014.58 1015.09 1015.61 1016.04 1016.35 1016.68 1016.68 1016.89 1017.09 1016.86 1017.27 1017.38 1017.65 1018.11 1018.35 1018.45 1018.89 1019.26 1019.29 1019.43 1019.67 1019.68 1019.73 1019.84
1003.92 1003.46 1002.52 1001.92 1001.85 1002.54 1004.09 1005.25 1004.95 1006.05 1006.04 1006.59 1007.16 1007.45 1007.80 1008.40 1008.43 1009.21 1009.52 1010.20 1010.67 1011.55 1012.10 1012.84 1013.31 1013.95 1014.52 1015.01 1015.43 1015.87 1016.28 1016.44 1016.51 1016.64 1016.73 1016.91 1017.24 1017.49 1017.83 1018.11 1018.49 1018.65 1018.99 1019.24 1019.36 1019.58 1019.81 1019.97 1019.93
1002.61 1002.45 1002.11 1001.95 1001.93 1002.38 1003.63 1006.06 1006.70 1006.52 1006.48 1006.55 1006.63 1006.86 1007.08 1007.31 1007.70 1008.22 1008.68 1009.14 1009.72 1010.62 1011.35 1012.05 1012.73 1013.35 1013.99 1014.54 1015.15 1015.70 1016.09 1016.37 1016.57 1016.64 1016.78 1016.81 1017.04 1017.35 1017.57 1017.81 1018.06 1018.39 1018.72 1019.08 1019.25 1019.36 1019.57 1019.91 1019.99
1001.75 1001.51 1001.89 1001.90 1002.55 1003.01 1002.93 1005.00 1005.63 1005.79 1005.69 1005.77 1005.57 1005.59 1006.03 1006.26 1006.51 1007.20 1007.61 1008.25 1008.68 1009.42 1010.58 1011.35 1012.11 1012.74 1013.43 1014.11 1014.68 1015.21 1015.49 1015.94 1016.12 1016.15 1016.46 1016.71 1016.76 1017.11 1017.38 1017.51 1017.79 1018.17 1018.50 1018.86 1018.89 1019.11 1019.43 1019.79 1020.20
1000.80 1001.52 1001.76 1002.13 1002.83 1003.31 1003.35 1004.47 1003.62 1004.65 1004.85 1004.11 1003.37 1003.95 1004.38 1004.94 1005.12 1005.59 1005.97 1006.72 1007.37 1008.48 1009.67 1010.63 1011.39 1012.02 1012.69 1013.41 1013.87 1014.59 1015.18 1015.47 1015.68 1015.95 1016.20 1016.51 1016.65 1016.71 1016.99 1017.15 1017.48 1017.78 1018.10 1018.31 1018.58 1018.91 1019.37 1019.67 1020.02
1000.81 1001.45 1001.78 1002.37 1002.95 1003.03 1002.89 1003.48 1003.13 1003.10 1002.31 1001.97 1001.96 1002.22 1002.71 1003.56 1003.87 1004.39 1004.88 1005.98 1006.82 1007.88 1008.86 1009.93 1010.80 1011.32 1011.91 1012.60 1013.17 1013.86 1014.52 1015.07 1015.63 1015.87 1016.08 1016.19 1016.36 1016.55 1016.55 1016.71 1017.04 1017.24 1017.52 1017.97 1018.27 1018.63 1019.06 1019.44 1019.71
1000.50 1001.36 1002.49 1002.94 1003.17 1002.64 1002.17 1002.21 1000.77 1000.34 999.86 999.75 1000.07 1000.64 1001.30 1002.13 1003.02 1003.41 1004.08 1005.01 1006.07 1007.09 1007.94 1008.89 1009.89 1010.70 1011.27 1011.83 1012.48 1013.09 1013.71 1014.45 1014.87 1015.28 1015.58 1015.95 1016.09 1016.24 1016.38 1016.49 1016.74 1017.06 1017.14 1017.47 1017.79 1018.34 1018.73 1019.10 1019.47
999.33 1000.32 1001.38 1002.49 1002.79 1002.36 1001.33 1000.49 998.44 998.11 997.43 998.13 998.73 998.64 999.77 1000.87 1001.80 1002.30 1002.89 1003.73 1004.80 1005.85 1006.88 1007.87 1008.84 1009.62 1010.43 1011.02 1011.70 1012.41 1013.10 1013.67 1014.13 1014.58 1014.99 1015.26 1015.56 1015.66 1015.72 1015.94 1016.05 1016.35 1016.72 1017.13 1017.56 1018.06 1018.25 1018.67 1018.99
998.57 998.82 1000.09 1001.71 1002.27 1001.97 1000.63 999.28 997.93 997.09 997.30 997.34 997.83 998.16 998.87 999.31 1000.33 1000.87 1001.88 1002.87 1003.87 1004.87 1005.70 1006.65 1007.76 1008.63 1009.48 1010.15 1010.88 1011.61 1012.31 1012.83 1013.32 1013.89 1014.37 1014.73 1014.93 1015.16 1015.24 1015.37 1015.72 1015.91 1016.29 1016.71 1017.39 1017.89 1018.01 1018.18 1018.51
997.03 998.63 999.82 1000.65 1001.57 1001.74 1000.30 998.66 996.87 996.53 996.25 995.93 995.89 996.64 997.17 998.09 998.96 1000.18 1000.90 1001.83 1002.72 1003.64 1004.52 1005.75 1006.79 1007.60 1008.45 1009.29 1010.05 1010.75 1011.37 1012.10 1012.67 1013.27 1013.77 1014.10 1014.36 1014.71 1014.81 1014.95 1015.26 1015.64 1016.01 1016.49 1016.99 1017.39 1017.57 1017.80 1018.02
997.43 997.59 998.31 999.44 1000.40 1000.84 1000.18 997.38 995.61 995.27 995.07 995.08 995.11 995.38 996.31 996.69 997.64 998.85 999.65 1000.55 1001.58 1002.72 1004.05 1004.95 1006.07 1007.05 1007.95 1008.70 1009.39 1010.13 1010.75 1011.30 1011.98 1012.54 1012.96 1013.38 1013.81 1014.04 1014.22 1014.35 1014.83 1015.23 1015.71 1016.07 1016.52 1016.85 1017.14 1017.40 1017.57
997.31 997.51 998.29 998.93 999.95 999.88 998.94 995.93 994.91 994.36 994.16 993.96 993.85 993.97 994.21 995.17 995.93 997.25 998.44 999.57 1000.94 1002.09 1003.10 1004.16 1005.15 1006.25 1006.95 1007.61 1008.54 1009.30 1009.97 1010.68 1011.29 1011.71 1012.22 1012.67 1013.06 1013.34 1013.59 1013.92 1014.36 1014.75 1015.13 1015.41 1015.82 1016.13 1016.46 1016.76 1016.98
Wind_Speed
8 6 2 2 1 1 1 3 3 2 3 8 14 5 8 7 2 4 10 9 13 9 7 12 17 18 16 15 15 14 14 14 13 12 13 13 13 13 12 12 12 11 12 12 11 9 10 11 11
6 6 2 1 1 1 1 2 12 5 6 16 10 8 6 5 4 11 9 13 11 11 8 11 18 18 17 15 14 14 14 14 13 12 12 12 12 12 11 12 11 11 11 10 9 8 8 10 10
10 7 0 2 1 2 2 7 7 9 12 7 7 8 5 4 13 14 13 16 13 10 9 12 18 17 17 15 15 15 13 14 12 12 13 12 12 11 10 11 10 10 10 8 7 6 6 8 8
4 0 3 2 3 2 3 4 2 14 5 7 13 10 6 7 15 8 18 15 14 12 10 17 19 19 16 15 15 14 14 12 11 10 12 11 11 10 11 10 10 9 8 7 5 4 4 5 6
1 2 2 2 4 5 8 8 12 9 5 7 4 8 9 6 9 20 15 15 15 12 10 13 18 17 16 15 14 13 14 12 11 11 10 10 10 11 10 10 9 9 8 6 5 3 1 2 5
3 2 0 3 2 4 11 10 10 7 8 12 13 12 3 7 18 13 10 15 14 13 10 12 16 16 16 15 14 12 13 11 10 10 10 9 10 11 10 9 9 8 8 7 6 3 1 1 3
4 4 1 3 7 6 12 1 13 10 10 7 13 8 5 17 16 12 10 14 14 12 10 8 9 13 15 14 13 12 11 10 9 8 8 8 8 8 9 8 8 8 7 5 5 4 2 2 3
2 2 6 4 4 5 5 4 13 15 6 15 13 9 14 20 16 11 15 14 13 11 9 6 6 6 6 6 13 11 10 9 8 7 8 6 6 6 6 5 5 6 6 6 4 3 3 2 3
3 3 5 6 2 4 6 13 10 5 15 4 8 10 26 19 15 17 15 13 11 10 9 7 6 6 6 5 7 9 10 9 8 7 7 4 1 2 3 4 5 6 5 5 3 2 5 2 3
8 5 8 7 9 5 9 13 9 8 9 11 15 23 21 19 13 17 16 14 14 13 9 8 7 7 6 6 4 5 4 3 3 4 4 3 3 3 4 6 6 5 3 2 5 6 5 1 1
10 7 5 7 11 6 4 8 10 17 7 21 29 29 21 18 14 17 15 16 13 14 10 10 9 7 7 5 4 2 2 3 3 5 4 4 3 3 3 2 0 1 3 2 2 3 1 1 1
6 9 15 8 7 5 5 3 12 12 9 19 29 30 26 22 18 17 15 16 15 15 14 12 10 9 7 4 5 5 4 4 3 4 4 3 3 3 3 2 2 3 2 0 2 0 1 3 4
12 17 10 10 5 4 3 7 14 8 20 21 24 25 25 20 17 14 13 15 15 14 14 14 12 11 8 7 4 4 5 4 6 4 5 4 4 3 3 3 3 3 2 3 2 3 2 4 0
5 16 12 5 7 2 9 5 7 13 22 25 26 22 21 22 18 17 16 17 16 15 15 15 13 12 10 9 6 4 4 5 5 4 6 6 4 3 3 4 4 3 3 3 2 3 3 2 1
17 15 10 12 10 3 13 7 8 17 19 26 23 20 17 17 16 15 18 17 19 15 16 15 14 13 12 9 7 6 7 7 7 5 7 7 5 5 5 3 4 3 4 4 2 4 2 3 2
6 11 13 16 11 10 7 1 8 20 22 23 24 20 18 18 18 13 14 13 18 14 15 15 13 13 12 10 7 5 3 4 5 6 6 7 6 7 5 5 4 3 2 3 3 2 0 2 1
2 7 8 14 20 15 8 13 11 18 19 21 22 22 21 18 17 16 16 13 14 13 17 17 15 13 12 8 6 4 4 4 3 3 5 7 6 8 6 4 4 3 2 2 2 1 2 1 2
5 4 6 11 5 18 8 13 13 13 19 22 21 21 23 21 22 19 20 15 15 12 17 19 14 13 9 6 4 3 1 1 4 4 4 7 5 8 6 4 5 3 1 1 1 1 1 2 1
6 7 10 8 16 25 23 22 20 19 11 20 22 21 22 25 24 20 19 18 17 12 17 18 16 12 9 4 4 3 3 2 2 4 7 6 6 6 6 4 4 4 3 4 3 2 1 1 2
13 14 16 14 10 10 20 24 25 23 23 17 22 23 25 22 22 22 22 20 21 14 19 17 18 14 11 8 6 3 3 3 2 3 4 7 7 7 6 6 5 5 2 3 3 3 1 0 1
16 16 14 13 5 8 15 5 11 12 9 11 17 19 20 22 23 23 24 23 21 18 20 18 18 17 14 11 5 2 2 1 1 3 2 5 7 7 7 7 5 5 4 4 3 4 4 2 1
17 15 15 16 5 4 12 6 12 17 21 17 17 17 18 20 23 23 25 25 24 22 19 20 19 18 15 13 11 12 9 8 5 4 4 5 7 7 7 7 6 6 4 5 4 3 3 3 2
15 10 12 13 5 4 11 1 8 18 21 23 23 21 19 19 20 25 26 29 28 23 20 19 19 19 16 15 14 12 9 6 4 3 6 6 6 8 9 7 7 6 5 5 5 4 4 3 3
11 9 11 3 4 8 10 9 6 16 30 25 20 22 21 21 21 23 23 23 22 21 21 19 19 18 17 17 16 15 14 7 6 4 5 4 4 6 6 7 7 7 6 5 5 5 5 5 3
15 6 6 4 6 9 10 6 15 25 28 25 29 24 23 21 19 22 24 23 23 24 23 20 20 18 17 19 16 16 13 11 11 8 7 6 4 3 6 7 7 5 6 6 6 5 5 5 4
13 17 10 13 5 10 4 10 13 14 26 26 25 27 25 25 20 21 25 24 23 24 24 22 22 21 19 19 18 15 13 10 9 9 5 6 6 7 8 9 9 9 8 6 6 4 5 6 5
9 17 14 4 3 2 5 7 7 9 12 14 27 26 25 29 26 25 25 24 23 23 25 25 23 22 20 20 17 16 14 15 12 8 7 7 6 6 8 10 11 9 9 8 7 5 6 6 6
24 8 6 3 16 10 6 6 13 9 11 9 16 27 29 28 28 24 24 25 24 21 23 23 23 24 20 20 17 15 15 13 10 9 9 8 7 7 7 8 11 10 9 9 8 6 6 7 5
15 16 5 6 6 10 4 11 8 10 11 11 15 25 26 28 27 27 24 24 25 22 21 22 21 22 20 18 17 16 15 15 13 10 11 11 7 8 8 9 10 10 10 9 9 8 8 9 8
7 10 13 9 11 3 5 15 6 12 12 10 14 24 29 28 30 28 26 25 23 23 22 22 21 21 20 19 18 17 15 14 13 14 12 10 11 9 11 7 8 10 11 10 12 12 10 11 11
Wind_Direction
163 167 195 194 331 171 336 356 7 92 116 177 165 132 116 44 69 168 133 150 135 142 151 152 145 139 134 124 119 114 108 107 103 103 101 98 101 102 109 113 112 110 109 106 106 102 96 89 94
154 166 237 288 240 15 9 41 239 139 212 108 94 105 60 77 83 120 118 149 138 136 141 147 144 142 137 129 121 116 114 110 108 104 101 99 96 102 107 105 106 105 103 106 104 99 92 90 89
159 208 168 215 107 220 152 216 228 165 152 103 113 51 62 88 113 143 139 142 137 128 134 148 140 143 141 133 124 121 117 112 114 116 111 108 108 104 97 98 102 102 101 101 100 100 95 95 99
168 137 262 290 351 243 224 342 163 166 116 76 103 76 82 113 136 148 145 142 129 132 141 141 143 146 142 135 129 128 124 122 120 114 105 114 114 117 117 109 107 108 108 110 114 110 105 107 104
340 1 335 274 74 287 259 251 314 226 79 104 106 76 96 135 104 139 139 134 132 134 136 138 144 144 140 139 138 138 132 130 129 118 117 112 115 109 113 116 117 116 115 121 125 130 116 120 118
168 143 295 328 345 267 276 203 198 236 106 115 100 105 97 133 143 146 138 135 135 134 139 147 147 142 139 143 144 144 135 134 131 131 125 116 111 122 119 119 118 117 121 123 120 107 68 358 88
244 161 111 334 334 346 303 181 191 157 141 121 144 95 127 146 159 152 143 133 134 135 135 138 141 143 145 145 148 142 140 140 140 135 126 124 126 121 125 127 127 127 127 129 129 120 100 346 29
260 106 161 174 206 262 302 144 129 156 117 123 144 144 159 155 163 162 135 133 133 140 136 137 133 131 130 152 152 147 152 150 147 150 144 142 132 139 153 148 154 145 143 138 128 130 106 34 16
238 283 199 239 203 206 282 150 148 98 132 187 162 139 150 155 155 143 138 134 136 142 144 147 136 134 132 142 157 158 164 167 168 171 163 151 143 221 210 185 189 162 159 139 146 173 98 42 44
197 205 235 205 189 213 159 134 149 128 125 99 103 122 152 157 161 151 150 148 154 153 157 156 153 150 152 158 162 167 180 163 180 195 189 159 176 233 230 232 201 170 163 89 107 46 65 138 117
203 228 241 243 227 185 218 169 132 134 164 157 146 148 160 161 169 158 155 160 161 159 161 166 167 161 168 164 174 180 177 190 203 204 187 189 189 211 226 217 142 81 163 18 326 50 340 242 174
262 223 227 233 198 185 190 307 166 185 166 162 153 149 155 166 170 167 159 167 159 164 168 171 176 172 183 158 183 188 186 197 200 201 170 176 200 196 184 159 161 201 246 272 260 213 278 268 277
234 247 232 247 292 238 21 28 183 135 138 144 147 154 157 166 170 172 163 168 166 170 173 178 178 180 184 178 187 190 204 192 212 175 187 187 157 160 152 190 176 189 222 223 226 263 228 257 247
225 227 247 156 321 46 84 82 80 141 139 145 154 163 164 169 168 171 174 169 174 176 181 181 182 184 183 191 184 196 204 209 208 164 182 206 177 168 135 166 205 173 204 217 214 282 247 156 219
247 265 244 207 172 119 112 77 136 150 154 152 160 165 168 178 174 177 179 179 178 182 182 186 184 184 182 191 181 209 213 201 211 161 176 191 164 167 136 198 232 182 201 206 257 270 255 287 128
225 233 250 219 176 126 85 192 167 164 162 168 169 169 176 181 191 185 182 174 178 177 182 187 185 184 181 175 182 190 167 165 187 158 178 181 165 134 146 184 193 177 183 195 212 196 282 310 341
231 244 240 251 200 145 130 184 197 182 170 174 182 175 180 183 188 193 194 185 177 170 181 186 183 186 183 174 170 182 156 138 198 180 163 173 156 151 149 170 187 170 165 256 180 117 180 262 278
196 229 222 233 215 153 141 184 173 183 180 189 185 182 184 190 198 186 195 201 193 167 177 182 181 182 179 163 169 156 180 241 133 205 194 171 173 154 154 175 201 161 196 170 236 144 224 217 28
255 225 231 256 156 159 178 185 199 189 189 194 189 190 193 190 196 197 191 198 200 165 178 183 182 182 168 158 163 170 191 210 190 195 194 188 174 161 162 172 200 177 189 207 164 177 126 340 72
231 254 252 272 275 195 180 195 201 196 201 196 190 188 198 195 191 197 197 199 200 178 183 184 186 181 184 181 185 162 158 206 189 175 197 177 183 169 172 176 193 187 200 212 187 172 143 142 127
230 232 247 240 302 31 127 150 199 218 232 197 204 204 199 198 195 196 197 199 196 189 186 182 186 183 184 180 152 111 101 20 217 225 179 188 188 178 180 191 180 183 194 202 198 170 164 187 322
230 231 251 257 262 211 169 210 198 194 216 216 208 208 204 200 197 200 195 200 198 194 186 186 182 181 182 173 175 189 198 199 203 196 174 192 188 188 186 184 182 177 188 198 200 177 164 126 169
235 233 246 250 227 211 228 120 240 191 213 217 217 206 204 205 206 196 197 197 200 190 185 185 180 180 178 179 182 188 200 200 180 189 202 186 201 191 196 181 184 185 186 208 187 184 186 167 150
225 230 256 261 189 240 228 201 263 181 212 213 217 210 201 200 209 197 188 188 189 189 187 184 182 182 179 181 186 190 199 182 186 202 198 203 195 199 197 188 187 191 185 191 192 203 192 188 172
212 145 242 296 238 229 218 216 225 205 209 208 206 213 204 203 203 201 191 183 183 184 185 184 185 185 184 185 185 191 193 190 197 194 198 181 192 193 201 189 191 195 196 191 185 188 191 184 188
210 202 194 213 195 228 191 210 240 203 217 207 206 205 198 203 201 210 197 191 185 184 184 185 187 189 186 188 191 193 187 195 204 200 190 200 192 202 198 197 197 197 194 190 181 185 193 183 202
216 209 201 168 198 146 222 240 266 230 192 210 209 207 200 203 202 209 197 194 190 186 187 187 188 194 193 192 189 190 191 201 205 198 197 199 190 197 200 196 199 199 192 191 172 189 208 190 197
212 164 191 219 226 244 277 221 225 216 241 211 198 199 197 202 204 207 197 193 193 191 190 188 190 193 193 195 198 200 198 193 195 193 195 198 190 199 201 200 201 203 195 190 180 197 207 201 204
212 210 226 163 154 215 220 250 214 229 215 207 193 190 201 199 201 202 199 193 194 192 189 191 190 193 193 194 196 200 202 203 199 198 205 209 198 194 203 205 199 201 197 191 189 199 201 206 206
255 190 197 202 226 212 186 252 240 212 230 213 217 196 198 196 197 195 196 191 189 193 190 191 191 192 194 194 194 199 200 199 201 209 203 198 205 210 209 190 196 200 197 191 197 204 204 205 210